User: anonymous   Login
Location: Bonn
(50.7330°N, 7.1000°E)
Time: 03:27:04
(UTC+01:00)
Language:

Iridium 84 - Orbit

View from above orbital plane
View from above orbital plane
View from above satellite
View from above satellite

Ground track
Ground track

The orbit data is extracted from the following two-line orbital elements,

1 25530U 98066D   17350.38021081  .00000181  00000-0  57723-4 0  9991
2 25530  86.3963 273.7598 0002011  84.4381 275.7044 14.34218555  3117
Epoch (UTC): 16 December 2017 09:07:30
Eccentricity: 0.0002011
inclination: 86.3963°
perigee height: 776 km
apogee height: 779 km
right ascension of ascending node: 273.7598°
argument of perigee: 84.4381°
revolutions per day: 14.34218555
mean anomaly at epoch: 275.7044°
orbit number at epoch: 311

The dashed part of the orbit path shows where the satellite is in the earth's shadow,  

DLR